TimeEST,TemperatureF,Dew PointF,Humidity,Sea Level PressureIn,VisibilityMPH,Wind Direction,Wind SpeedMPH,Gust SpeedMPH,PrecipitationIn,Events,Conditions,WindDirDegrees,DateUTC
12:53 AM,44.1,18.0,35,30.37,10.0,Calm,Calm,-,N/A,,Clear,0,2012-11-29 05:53:00
1:53 AM,39.9,24.1,53,30.39,10.0,Calm,Calm,-,N/A,,Clear,0,2012-11-29 06:53:00
2:53 AM,39.0,25.0,57,30.40,10.0,Calm,Calm,-,N/A,,Clear,0,2012-11-29 07:53:00
3:53 AM,37.9,26.1,62,30.40,10.0,Calm,Calm,-,N/A,,Clear,0,2012-11-29 08:53:00
4:53 AM,36.0,24.1,62,30.40,10.0,Calm,Calm,-,N/A,,Clear,0,2012-11-29 09:53:00
5:53 AM,37.0,24.1,59,30.41,10.0,Calm,Calm,-,N/A,,Clear,0,2012-11-29 10:53:00
6:53 AM,36.0,24.1,62,30.43,10.0,Calm,Calm,-,N/A,,Clear,0,2012-11-29 11:53:00
7:53 AM,36.0,26.1,67,30.44,10.0,Calm,Calm,-,N/A,,Clear,0,2012-11-29 12:53:00
8:53 AM,45.0,25.0,46,30.45,10.0,NE,3.5,-,N/A,,Clear,40,2012-11-29 13:53:00
9:53 AM,46.9,24.1,41,30.47,10.0,East,4.6,-,N/A,,Scattered Clouds,100,2012-11-29 14:53:00
11:53 AM,54.0,37.9,55,30.44,10.0,SSW,5.8,-,N/A,,Clear,210,2012-11-29 16:53:00
12:53 PM,57.0,37.0,47,30.41,10.0,South,10.4,-,N/A,,Clear,190,2012-11-29 17:53:00
1:53 PM,57.9,37.0,46,30.39,10.0,Variable,4.6,-,N/A,,Clear,0,2012-11-29 18:53:00
2:53 PM,57.9,35.1,42,30.36,10.0,WSW,6.9,-,N/A,,Clear,240,2012-11-29 19:53:00
3:53 PM,57.9,35.1,42,30.35,10.0,SSW,8.1,-,N/A,,Clear,210,2012-11-29 20:53:00
4:53 PM,55.9,34.0,44,30.36,10.0,SSW,5.8,-,N/A,,Clear,200,2012-11-29 21:53:00
5:53 PM,54.0,34.0,47,30.38,10.0,SW,3.5,-,N/A,,Clear,220,2012-11-29 22:53:00
6:53 PM,50.0,34.0,54,30.40,10.0,Calm,Calm,-,N/A,,Clear,0,2012-11-29 23:53:00
7:53 PM,51.1,34.0,52,30.40,10.0,Calm,Calm,-,N/A,,Clear,0,2012-11-30 00:53:00
8:53 PM,46.9,34.0,61,30.40,10.0,Calm,Calm,-,N/A,,Clear,0,2012-11-30 01:53:00
9:53 PM,46.0,32.0,58,30.40,10.0,Calm,Calm,-,N/A,,Clear,0,2012-11-30 02:53:00
10:53 PM,43.0,32.0,65,30.40,10.0,Calm,Calm,-,N/A,,Clear,0,2012-11-30 03:53:00
11:53 PM,41.0,32.0,70,30.40,10.0,Calm,Calm,-,N/A,,Clear,0,2012-11-30 04:53:00